| time (UTC) | temp C | wind direction | speed KPH | gust KPH | rain 1hr cm | rain 24hr cm | rain mn cm | humidity % | barometer mb |
| 20260504100607 | 5 | 0 | 0.0 | 1.6 | 0.03 | 0.13 | 0.13 | 81 | 1017.0 |
| 20260504080606 | 6 | 0 | 0.0 | 0.0 | 0.10 | 0.10 | 0.10 | 77 | 1018.8 |
| 20260504080111 | 6 | 0 | 0.0 | 0.0 | 0.10 | 0.10 | 0.10 | 77 | 1018.8 |
| 20260504070111 | 10 | 0 | 0.0 | 9.7 | 0.00 | 0.00 | 0.00 | 43 | 1019.7 |
| 20260504060111 | 10 | 0 | 1.6 | 11.3 | 0.00 | 0.00 | 0.00 | 42 | 1019.0 |
| 20260504050607 | 11 | 0 | 0.0 | 0.0 | 0.00 | 0.00 | 0.00 | 36 | 1019.0 |
| 20260504050113 | 11 | 0 | 0.0 | 0.0 | 0.00 | 0.00 | 0.00 | 36 | 1019.0 |
| 20260504040606 | 12 | 0 | 1.6 | 12.9 | 0.00 | 0.00 | 0.00 | 30 | 1020.0 |
| 20260504040111 | 12 | 0 | 3.2 | 12.9 | 0.00 | 0.00 | 0.00 | 30 | 1019.9 |
| 20260504030113 | 12 | 0 | 0.0 | 0.0 | 0.00 | 0.00 | 0.00 | 20 | 1018.6 |
| 20260504020112 | 14 | 0 | 0.0 | 0.0 | 0.00 | 0.00 | 0.00 | 16 | 1018.1 |
| 20260504010606 | 16 | 0 | 0.0 | 0.0 | 0.00 | 0.00 | 0.00 | 13 | 1018.3 |
| 20260504000606 | 16 | 0 | 1.6 | 8.0 | 0.00 | 0.00 | 0.00 | 13 | 1018.8 |
| 20260503230606 | 18 | 0 | 0.0 | 9.7 | 0.00 | 0.00 | 0.00 | 10 | 1019.3 |
| 20260503230112 | 19 | 0 | 1.6 | 9.7 | 0.00 | 0.00 | 0.00 | 8 | 1019.4 |
| 20260503220606 | 17 | 0 | 3.2 | 9.7 | 0.00 | 0.00 | 0.00 | 12 | 1020.5 |
| 20260503220110 | 17 | 0 | 0.0 | 11.3 | 0.00 | 0.00 | 0.00 | 13 | 1020.6 |
| 20260503210606 | 20 | 0 | 3.2 | 19.3 | 0.00 | 0.00 | 0.00 | 10 | 1021.3 |
| 20260503200606 | 19 | 0 | 3.2 | 11.3 | 0.00 | 0.00 | 0.00 | 8 | 1022.2 |
| 20260503190606 | 21 | 0 | 4.8 | 11.3 | 0.00 | 0.00 | 0.00 | 8 | 1023.1 |
| 20260503190111 | 20 | 0 | 1.6 | 11.3 | 0.00 | 0.00 | 0.00 | 11 | 1023.2 |
| 20260503180606 | 19 | 0 | 3.2 | 14.5 | 0.00 | 0.00 | 0.00 | 11 | 1024.4 |
| 20260503180111 | 19 | 0 | 3.2 | 14.5 | 0.00 | 0.00 | 0.00 | 12 | 1024.4 |
| 20260503170605 | 17 | 0 | 1.6 | 12.9 | 0.00 | 0.00 | 0.00 | 15 | 1025.0 |
| 20260503160110 | 15 | 0 | 3.2 | 11.3 | 0.00 | 0.00 | 0.00 | 20 | 1025.4 |
| 20260503140111 | 8 | 0 | 1.6 | 9.7 | 0.00 | 0.00 | 0.00 | 30 | 1026.4 |
| 20260503130606 | 6 | 0 | 1.6 | 8.0 | 0.00 | 0.00 | 0.00 | 31 | 1026.4 |
| 20260503130110 | 6 | 0 | 1.6 | 4.8 | 0.00 | 0.00 | 0.00 | 31 | 1026.4 |
| 20260503120110 | 6 | 0 | 1.6 | 11.3 | 0.00 | 0.00 | 0.00 | 28 | 1026.0 |
| 20260503110606 | 5 | 0 | 1.6 | 4.8 | 0.00 | 0.00 | 0.00 | 29 | 1026.2 |
| 20260503110110 | 5 | 0 | 0.0 | 4.8 | 0.00 | 0.00 | 0.00 | 29 | 1026.2 |